Temperature
21 21 20 20 20 20 23 24 25 25 25 25 25 24 23 22 21 20 20 20 20 20 20 20 20 20 20 20 20 20 20 19 19 19 19 19 19 19 19 19 19 19 19 19 19 19 19 18 18
21 21 20 20 20 21 23 25 25 25 25 25 25 24 23 22 21 20 20 20 21 21 20 20 20 20 20 20 20 20 19 19 19 19 19 19 19 19 19 19 19 19 19 19 19 19 19 18 18
21 21 20 20 21 22 24 25 25 26 26 26 24 24 23 22 21 21 21 21 21 21 20 20 20 20 20 20 20 20 19 19 19 19 19 19 19 19 19 19 19 19 19 19 19 19 19 18 18
21 21 21 21 23 24 25 26 26 26 26 25 24 23 23 22 22 21 21 21 21 21 20 20 20 20 20 20 20 20 20 19 19 19 19 19 19 19 19 19 19 19 19 19 19 19 18 18 18
22 21 21 22 24 26 26 27 27 26 25 25 24 22 22 22 22 22 21 21 21 21 20 20 20 20 20 20 19 20 20 19 19 19 19 19 19 19 19 19 19 19 19 19 19 18 18 18 18
22 21 22 23 25 26 27 27 26 25 25 24 23 22 22 22 22 21 21 21 21 21 20 20 20 20 20 20 19 19 19 19 19 19 19 19 19 19 19 19 19 19 19 19 19 19 18 18 18
22 21 23 24 25 26 27 27 26 25 25 25 24 22 22 21 22 21 21 21 21 21 20 20 20 20 20 20 20 19 19 19 19 19 19 19 19 19 19 19 19 19 19 19 19 19 18 18 18
24 22 24 24 25 26 27 27 27 26 25 25 24 22 22 22 22 21 21 21 21 21 20 20 20 20 20 20 20 19 19 19 19 19 19 19 19 19 19 19 19 19 19 19 19 19 18 18 18
25 22 23 25 25 26 27 27 27 26 25 25 24 23 23 22 22 21 21 20 20 20 20 20 20 20 20 19 19 19 19 19 19 19 19 19 19 19 19 19 18 19 19 19 19 19 18 18 18
24 22 25 27 26 26 27 26 26 25 24 24 23 23 23 22 22 21 21 20 20 20 20 20 20 20 20 19 19 19 19 19 19 19 19 19 19 19 19 19 18 19 19 19 19 19 18 18 18
25 25 26 27 28 27 27 26 26 25 23 23 23 23 22 22 22 21 21 21 20 20 20 20 20 20 20 20 19 19 19 19 19 19 19 19 19 19 19 18 18 18 18 19 19 19 19 19 18
27 27 28 28 28 28 27 26 26 25 25 24 24 23 23 22 21 21 21 21 20 20 20 20 20 20 20 20 20 19 19 19 19 19 19 19 19 19 18 18 18 18 18 18 18 18 19 19 19
27 27 28 29 28 28 27 26 26 25 25 24 24 23 23 22 22 21 21 21 20 20 20 20 20 20 20 20 20 19 19 19 19 19 19 19 19 19 19 19 18 18 18 18 18 18 18 18 18
27 27 28 28 28 28 27 26 26 25 25 24 23 23 23 22 22 22 21 21 21 20 20 20 20 20 20 20 20 20 19 19 19 19 19 19 19 19 19 19 18 18 18 18 18 18 18 18 18
28 26 27 27 28 28 27 25 25 25 25 24 23 23 22 22 22 22 21 21 21 21 20 20 20 20 20 20 19 19 19 19 19 19 19 19 19 19 18 18 18 18 18 18 18 18 18 18 18
26 25 25 27 27 28 26 24 25 25 24 24 23 23 22 22 22 22 21 21 21 21 20 20 20 20 19 19 19 19 19 19 19 19 19 19 19 18 18 18 18 18 18 18 18 18 18 18 18
24 24 25 27 28 27 26 25 25 25 24 23 23 22 22 22 22 21 21 21 21 21 20 20 20 20 20 19 19 19 19 19 19 19 19 18 18 18 18 18 18 18 18 18 18 18 18 18 18
24 24 25 26 27 27 25 25 25 25 24 23 23 22 22 22 22 21 21 21 21 21 20 20 20 20 20 19 19 19 19 19 19 19 18 18 18 18 18 18 18 18 18 18 18 18 18 18 18
26 25 26 27 27 26 25 24 25 25 24 23 22 22 22 22 22 22 21 21 21 20 20 20 20 20 19 19 19 19 19 18 18 18 18 18 18 18 18 18 18 18 18 18 18 18 18 18 18
26 26 26 26 27 26 24 24 24 24 24 24 23 22 22 22 22 21 21 21 21 20 20 20 20 20 19 19 19 19 19 18 18 18 18 18 18 18 18 18 18 18 18 18 18 18 18 18 18
27 26 26 26 26 26 24 23 23 23 24 24 23 23 22 22 22 21 21 21 21 20 20 20 20 20 19 19 19 19 18 18 18 18 18 18 18 18 18 17 17 17 17 17 17 17 17 17 18
27 28 28 27 25 23 24 22 22 22 22 23 23 22 22 22 22 21 21 21 21 21 20 20 20 20 19 19 19 19 19 18 18 18 18 18 18 18 17 17 17 17 17 17 17 17 17 17 17
28 28 28 27 24 23 23 22 22 22 22 22 22 23 22 22 22 22 21 21 21 21 21 20 20 20 19 19 19 19 18 18 18 18 18 17 17 17 17 17 17 17 17 17 17 17 17 17 17
29 27 26 23 22 22 23 22 22 21 22 22 22 23 23 23 22 22 22 21 21 21 20 20 20 19 19 19 19 19 18 18 18 18 17 17 17 17 17 17 17 17 17 17 16 16 16 16 16
28 24 23 23 22 22 22 22 22 23 23 23 22 22 23 23 22 22 21 21 21 21 20 20 20 20 19 19 19 19 18 18 18 18 17 17 17 17 17 17 17 16 16 16 16 16 16 16 16
27 24 23 23 22 22 22 22 22 24 24 24 23 23 23 22 22 22 22 21 21 21 21 20 20 20 19 19 19 18 18 18 18 17 17 17 17 17 17 16 16 16 16 16 16 16 16 16 16
27 25 24 22 22 22 22 22 23 23 23 23 23 22 22 22 22 22 22 21 21 21 21 21 20 20 19 19 19 18 18 18 18 17 17 17 17 17 16 16 16 16 16 16 16 16 15 15 15
27 25 22 22 22 22 22 22 21 22 22 22 22 22 22 22 22 22 22 21 21 21 21 20 20 20 19 19 19 18 18 18 18 17 17 17 17 16 16 16 16 16 16 15 15 15 15 15 15
27 25 22 20 21 21 21 22 23 22 22 22 22 22 22 22 22 21 21 21 21 21 20 20 20 19 19 19 19 18 18 18 17 17 17 17 16 16 16 16 16 16 16 15 15 15 15 15 15
26 25 22 22 22 20 20 21 24 22 22 22 22 21 22 22 22 21 21 21 21 20 20 20 20 19 19 19 19 18 18 17 17 17 17 16 16 16 16 16 16 16 15 15 15 15 15 15 14
Wind_Speed
11 9 4 1 1 3 2 2 5 7 6 7 10 10 9 7 5 5 3 9 11 9 8 9 9 10 10 10 11 12 12 12 12 12 12 12 11 12 11 11 11 11 11 11 11 11 11 11 11
8 6 2 0 2 3 2 4 8 9 10 12 12 12 9 7 6 8 5 9 11 10 8 9 10 10 10 10 11 12 12 12 12 12 11 11 11 11 10 10 10 10 10 10 11 11 11 11 11
6 5 1 1 1 3 3 5 9 10 10 9 7 6 5 6 7 6 7 12 10 8 8 9 10 10 11 11 11 12 12 12 12 11 11 10 10 10 10 9 9 9 9 9 10 10 10 10 10
2 1 1 2 2 2 5 6 9 11 9 9 8 6 5 5 5 8 13 13 11 8 8 9 10 10 10 12 11 12 12 12 11 10 10 9 9 9 8 8 8 8 8 9 9 9 9 9 9
1 1 2 2 2 3 5 6 9 10 6 9 10 8 5 5 11 14 14 13 12 8 7 9 11 11 12 13 13 12 12 11 10 9 8 8 8 8 7 6 6 7 7 8 9 9 9 9 9
1 2 2 1 2 4 4 8 12 12 12 10 10 8 4 6 12 12 12 11 10 9 7 9 11 12 12 13 12 12 11 10 10 9 8 7 7 7 6 5 5 5 6 8 9 9 10 10 10
1 2 1 1 3 5 5 6 10 10 10 7 9 7 4 6 9 11 12 11 9 9 7 6 7 9 11 11 11 10 10 10 9 8 7 6 6 5 5 4 4 4 5 6 8 9 10 10 10
3 1 1 1 4 4 4 5 8 11 8 9 7 7 6 6 9 11 11 10 9 7 6 5 4 6 7 8 9 9 9 8 8 7 7 6 5 4 4 4 3 3 4 5 6 7 8 9 9
3 2 1 3 4 4 5 8 7 8 9 6 6 7 10 12 12 12 10 8 7 7 5 4 4 4 5 6 7 7 7 7 6 5 5 5 3 2 3 4 3 3 4 5 5 6 7 7 8
4 3 4 3 5 6 6 7 6 7 10 8 9 9 12 12 12 12 11 9 8 7 5 4 4 3 4 4 4 4 4 4 4 3 3 3 2 2 3 3 3 2 3 4 4 5 5 5 4
4 4 1 1 3 6 7 5 5 10 7 10 14 13 11 11 10 11 10 9 9 8 7 5 5 4 4 2 4 3 3 3 2 3 3 3 2 1 1 1 1 1 1 1 1 1 2 3 3
3 2 3 2 4 5 5 5 5 8 8 14 16 14 11 11 10 10 10 8 8 8 7 5 5 5 4 4 3 3 2 2 2 2 3 3 2 1 1 1 1 1 1 1 1 1 1 2 2
2 2 2 4 6 7 6 5 6 8 12 15 15 13 11 11 10 9 9 8 8 7 6 6 5 5 4 4 3 3 2 2 3 3 3 3 2 1 1 1 1 0 1 1 1 1 1 1 1
2 1 1 2 5 6 8 5 6 8 13 14 14 11 10 11 10 9 8 8 8 7 6 5 6 5 4 4 3 2 2 2 3 3 3 4 3 2 1 1 1 0 1 1 1 1 1 1 1
2 3 3 1 2 3 7 4 6 11 12 13 12 11 10 9 10 10 9 8 7 7 5 5 6 5 5 4 3 3 2 3 3 2 3 3 3 2 2 1 1 0 0 1 1 1 1 1 0
4 4 2 3 3 3 8 4 7 11 12 11 11 11 10 8 9 9 9 8 7 6 6 5 6 5 4 3 3 2 3 3 3 2 2 2 3 3 2 2 1 0 1 1 1 1 1 1 1
4 1 3 4 2 4 5 4 8 10 12 11 11 10 10 9 8 8 9 8 7 6 6 5 5 5 4 3 3 3 3 3 3 3 2 2 2 3 2 1 1 1 1 1 1 1 1 1 0
2 3 3 3 2 3 4 4 8 9 11 10 10 9 9 10 8 8 9 9 8 7 5 5 5 4 4 3 3 3 3 2 2 2 2 3 2 3 2 1 1 2 2 2 1 1 1 1 1
4 4 6 5 2 3 4 4 6 8 10 10 10 9 9 9 8 8 9 9 8 6 5 4 5 3 3 2 2 2 1 1 1 1 2 2 2 3 3 2 2 2 2 1 1 1 1 1 1
5 5 4 3 1 3 4 2 2 6 9 11 13 12 11 9 7 8 8 8 8 7 5 5 4 4 3 3 2 2 2 1 1 1 2 2 2 2 2 2 2 2 2 2 2 1 1 1 1
5 6 6 4 2 3 5 2 0 2 3 5 7 9 10 12 11 9 9 8 8 7 7 6 5 4 4 3 3 3 2 2 2 1 1 1 2 3 3 2 2 2 2 1 1 1 2 0 1
5 6 7 6 3 1 3 2 5 4 3 6 7 7 9 10 10 10 10 9 9 9 7 6 5 5 4 4 4 4 3 2 1 1 1 1 2 2 2 2 2 2 2 1 1 1 1 2 0
6 5 3 4 4 2 0 3 5 3 4 6 8 9 9 10 12 12 12 11 10 8 7 6 5 4 4 4 4 4 3 2 1 1 2 1 1 1 1 2 1 2 1 1 1 1 2 1 1
4 2 4 4 4 1 4 3 4 5 9 8 7 8 9 10 11 11 11 9 8 7 7 6 6 4 4 4 4 4 4 3 3 2 2 0 0 1 1 1 1 1 1 1 1 1 1 1 1
3 5 4 4 4 3 1 3 6 6 8 11 11 9 8 9 9 9 10 9 9 9 8 7 7 5 4 4 4 4 4 4 4 3 2 1 0 0 1 0 0 0 1 1 1 1 1 1 1
2 8 6 4 3 3 1 2 5 4 6 7 8 8 9 10 9 9 10 10 10 10 9 8 7 6 5 4 3 3 3 3 3 3 3 2 1 1 0 0 0 0 1 1 1 1 0 0 0
2 2 7 7 2 1 1 2 4 2 5 6 8 9 9 10 10 9 9 9 9 9 9 9 8 6 5 5 3 3 3 3 3 3 2 2 1 1 1 1 1 1 1 1 1 1 0 0 0
5 5 6 5 4 1 2 2 4 4 5 6 6 8 9 9 9 8 8 8 8 7 7 7 7 6 5 4 4 4 2 2 2 3 2 2 1 1 1 1 2 1 1 1 1 1 1 1 1
1 3 5 4 5 5 2 5 6 10 9 8 9 9 9 8 8 8 7 7 8 7 7 6 6 6 5 4 3 3 3 2 2 2 2 2 1 2 2 1 1 1 1 1 1 0 1 1 1
5 5 6 4 2 5 5 6 4 8 8 8 7 8 8 9 8 7 7 7 7 7 7 7 6 6 6 5 5 4 3 3 3 2 1 2 2 2 2 1 1 1 0 0 1 1 0 0 1
Wind_Direction
169 163 161 191 32 46 52 69 94 75 67 70 78 81 82 68 96 129 160 143 139 143 144 135 129 127 125 123 124 126 124 121 120 122 125 128 132 135 136 137 140 145 148 152 155 156 157 155 153
164 167 175 36 63 75 49 86 94 92 109 106 83 82 77 72 86 116 132 144 140 139 140 130 127 127 126 125 126 129 129 125 122 122 125 130 135 138 140 142 144 149 152 156 159 160 162 161 160
176 191 177 54 91 136 123 109 110 103 97 97 88 65 69 105 115 133 146 141 131 130 134 132 123 128 131 130 129 132 129 128 125 124 124 129 133 140 145 148 151 155 160 162 163 164 165 167 170
168 168 36 56 96 149 131 127 113 102 82 80 92 72 63 100 120 132 135 135 129 130 137 136 125 127 136 138 132 133 131 130 129 127 128 131 134 138 146 154 159 163 166 168 170 172 172 173 177
158 92 38 21 93 119 117 120 111 99 90 91 94 97 83 74 110 124 135 137 133 135 141 141 128 120 128 134 134 132 131 131 130 130 131 133 135 137 144 152 160 166 172 176 178 181 181 178 179
78 72 50 30 91 104 98 104 98 99 106 108 104 106 100 112 121 131 135 135 135 138 140 143 135 127 125 130 135 137 136 134 132 130 131 134 137 140 146 150 152 164 179 188 189 190 189 186 188
136 95 229 189 99 97 113 112 112 117 118 121 124 104 119 128 134 131 129 131 134 135 134 136 146 140 136 137 139 143 142 140 137 138 139 141 145 150 156 154 163 178 190 191 193 196 197 193 192
165 107 287 160 117 116 119 100 113 121 115 125 119 123 151 161 136 123 119 122 129 129 135 136 142 144 147 149 146 148 149 146 143 145 150 154 154 156 158 165 180 196 186 186 190 191 193 194 194
150 102 211 186 141 142 120 101 91 89 102 104 97 124 147 140 127 122 116 114 124 128 137 138 136 144 153 157 157 157 156 152 150 150 151 158 163 167 173 183 198 203 185 181 181 183 186 195 199
147 155 205 189 155 146 125 116 119 96 93 90 94 104 123 127 128 133 135 134 138 143 150 145 145 144 149 159 153 159 152 151 152 144 138 132 138 167 172 190 206 198 171 163 167 177 189 194 193
171 181 210 89 113 125 118 115 107 118 116 138 138 139 137 130 130 135 141 144 146 149 144 146 148 142 139 125 125 127 130 136 136 136 134 119 103 104 106 149 200 209 181 169 180 187 183 180 185
121 192 183 140 120 114 124 123 111 121 146 145 141 144 139 137 141 144 145 144 141 143 145 143 137 128 124 114 120 124 123 127 122 135 136 121 98 74 78 109 150 171 170 154 173 157 166 178 193
128 229 203 161 135 129 118 123 123 125 134 135 135 136 139 142 146 146 144 143 141 141 146 149 139 129 123 110 116 114 112 120 123 115 118 117 112 104 93 91 128 188 176 169 148 138 139 167 199
201 197 234 138 134 139 129 127 111 140 139 135 135 137 140 147 147 142 141 144 146 146 149 142 134 130 121 116 113 116 119 112 106 105 111 120 116 106 98 80 55 338 222 204 165 162 152 155 171
47 51 13 124 128 140 113 94 143 149 138 136 136 137 136 135 134 137 142 143 144 142 139 139 136 126 125 129 133 126 126 113 108 114 107 113 108 115 119 104 63 307 202 156 133 114 97 103 135
25 43 359 272 156 150 118 159 171 154 141 141 138 139 136 132 135 138 134 129 128 130 129 130 133 124 126 126 132 128 119 119 117 113 101 99 100 112 117 101 72 342 70 83 108 104 104 82 100
22 347 276 288 213 153 125 168 175 160 144 145 145 145 141 137 138 140 140 137 132 132 134 127 120 127 126 113 108 106 102 115 114 103 92 82 78 89 98 94 65 64 72 65 104 94 119 121 143
225 255 267 256 245 115 124 164 160 158 147 148 149 148 145 147 156 152 147 142 136 131 129 130 121 119 116 102 91 81 76 84 96 98 88 84 78 76 79 83 43 67 71 56 48 77 80 129 180
194 238 254 258 205 117 134 153 165 162 154 157 159 156 155 158 159 149 147 143 135 129 124 134 127 126 117 109 112 108 110 105 85 87 89 92 91 85 76 67 54 67 83 90 79 93 80 40 83
210 229 251 297 176 133 128 118 170 167 171 171 168 165 162 159 153 154 150 145 144 150 147 144 144 142 138 147 150 140 137 131 129 67 63 70 77 79 85 83 78 72 83 66 53 67 87 32 71
245 203 203 201 89 79 111 45 220 195 143 152 163 168 167 165 163 163 159 157 157 163 165 162 163 153 154 142 113 98 72 57 59 50 61 61 80 83 76 93 99 88 97 94 67 76 114 146 338
246 222 191 183 146 213 144 184 248 182 170 168 169 169 177 170 165 164 164 165 171 176 172 163 162 157 155 143 132 133 136 144 178 157 121 57 64 73 74 89 96 96 94 90 65 71 87 121 303
212 206 179 177 147 117 21 136 267 166 188 196 183 177 177 172 169 172 175 175 174 174 170 165 155 149 147 142 146 147 147 161 138 112 99 56 24 45 68 81 89 90 99 115 71 61 80 102 125
185 72 39 56 74 60 243 152 252 213 201 188 181 172 166 166 168 173 175 169 168 165 163 160 152 154 153 145 142 149 148 143 125 124 131 117 13 356 3 83 83 97 99 115 122 104 97 97 103
93 85 32 4 11 259 227 144 246 234 193 182 177 174 165 157 159 164 164 168 168 167 167 166 159 163 162 151 150 154 151 146 148 158 157 156 134 330 303 32 60 64 124 133 129 112 101 97 107
174 133 155 197 224 272 359 210 258 240 176 164 165 166 162 156 166 172 169 169 168 169 169 166 164 166 162 160 162 157 149 150 157 161 160 169 180 201 199 97 69 71 89 94 105 99 146 103 150
147 180 168 142 140 100 295 295 319 61 137 153 162 161 163 166 173 172 168 164 162 163 166 165 161 156 156 158 146 140 147 145 152 152 142 144 145 127 85 82 72 52 63 73 89 75 7 26 268
156 152 89 107 142 204 299 238 218 208 178 173 167 166 171 170 169 163 160 157 157 159 158 157 156 158 152 140 140 141 142 144 145 131 123 118 117 110 93 76 72 69 68 64 85 74 27 46 342
97 79 104 116 142 150 210 262 216 190 182 179 175 166 165 165 163 154 150 149 147 142 143 149 153 144 140 144 139 130 124 122 123 126 130 136 133 128 119 104 94 85 77 83 92 53 50 63 359
151 162 143 143 202 160 165 257 242 182 175 162 154 147 139 142 148 142 143 143 141 141 141 145 148 145 150 145 135 131 121 111 107 110 119 132 146 156 159 151 138 129 53 74 150 242 304 208 281
Height
1500 1500 1501 1502 1504 1508 1507 1497 1489 1488 1489 1488 1487 1488 1492 1496 1501 1508 1505 1503 1504 1503 1502 1502 1501 1500 1499 1499 1500 1501 1501 1502 1503 1503 1504 1506 1507 1508 1510 1511 1512 1513 1514 1516 1517 1518 1520 1521 1523
1500 1501 1502 1503 1508 1517 1509 1495 1491 1489 1490 1489 1490 1492 1494 1499 1500 1502 1503 1504 1504 1503 1503 1502 1501 1500 1499 1499 1500 1501 1502 1503 1504 1505 1505 1507 1508 1509 1510 1511 1512 1513 1514 1515 1516 1518 1519 1521 1522
1501 1501 1503 1504 1508 1512 1505 1494 1490 1490 1490 1489 1492 1495 1497 1501 1502 1503 1503 1504 1504 1504 1504 1503 1501 1500 1499 1500 1501 1502 1503 1504 1505 1506 1507 1508 1508 1509 1510 1511 1512 1513 1514 1515 1516 1517 1518 1520 1522
1501 1503 1503 1506 1506 1498 1493 1490 1488 1490 1491 1491 1493 1498 1501 1503 1502 1503 1504 1504 1505 1505 1505 1504 1502 1499 1496 1499 1501 1503 1504 1505 1506 1507 1507 1508 1509 1510 1511 1511 1512 1512 1513 1514 1515 1516 1518 1519 1521
1502 1502 1506 1509 1502 1494 1488 1487 1488 1489 1492 1495 1494 1500 1503 1505 1504 1504 1505 1505 1506 1506 1506 1505 1503 1499 1494 1498 1502 1504 1505 1506 1507 1508 1508 1509 1510 1510 1511 1511 1511 1512 1512 1513 1514 1515 1516 1518 1520
1503 1503 1513 1514 1502 1493 1489 1488 1488 1491 1495 1496 1497 1501 1505 1506 1505 1506 1506 1507 1507 1507 1507 1506 1506 1504 1502 1503 1505 1507 1507 1508 1509 1509 1510 1510 1510 1511 1511 1511 1511 1510 1510 1510 1511 1513 1515 1517 1519
1504 1506 1510 1507 1502 1497 1492 1489 1489 1492 1495 1497 1498 1501 1506 1507 1507 1507 1507 1508 1508 1508 1508 1508 1508 1507 1507 1507 1508 1509 1509 1510 1510 1511 1511 1511 1511 1511 1511 1511 1510 1508 1506 1506 1507 1509 1512 1515 1518
1501 1504 1507 1504 1502 1499 1492 1490 1491 1492 1495 1498 1498 1501 1505 1507 1508 1508 1509 1509 1509 1509 1510 1509 1509 1509 1509 1510 1510 1511 1511 1511 1512 1512 1512 1512 1512 1512 1512 1511 1510 1507 1505 1505 1505 1507 1511 1514 1518
1501 1507 1510 1502 1500 1497 1492 1492 1494 1494 1495 1498 1498 1500 1503 1506 1508 1509 1510 1510 1510 1511 1511 1511 1511 1511 1511 1512 1512 1513 1513 1513 1513 1514 1514 1514 1513 1513 1513 1512 1510 1507 1506 1506 1506 1508 1511 1515 1518
1499 1508 1501 1492 1491 1491 1491 1492 1494 1496 1497 1499 1501 1503 1505 1507 1508 1509 1510 1510 1510 1511 1512 1512 1512 1512 1513 1513 1513 1514 1514 1514 1515 1515 1515 1515 1514 1514 1513 1513 1511 1510 1509 1509 1509 1511 1513 1516 1518
1495 1498 1492 1489 1489 1489 1491 1492 1493 1496 1500 1499 1500 1503 1505 1507 1508 1509 1510 1510 1511 1512 1512 1512 1513 1513 1514 1514 1514 1515 1515 1515 1515 1516 1516 1516 1515 1515 1514 1514 1513 1512 1512 1512 1513 1514 1516 1517 1519
1492 1491 1490 1490 1489 1490 1492 1493 1494 1494 1498 1499 1500 1502 1505 1507 1508 1509 1510 1511 1512 1512 1513 1513 1513 1514 1514 1515 1515 1515 1516 1516 1516 1516 1517 1516 1516 1515 1515 1515 1515 1514 1514 1514 1515 1516 1517 1518 1519
1491 1490 1488 1489 1490 1491 1492 1493 1494 1496 1498 1499 1501 1504 1505 1506 1508 1510 1511 1511 1512 1512 1513 1514 1514 1515 1515 1515 1516 1516 1516 1517 1517 1517 1517 1517 1516 1516 1516 1516 1515 1515 1515 1515 1516 1516 1517 1518 1519
1489 1488 1488 1488 1489 1490 1492 1495 1496 1498 1499 1500 1502 1504 1505 1506 1508 1509 1511 1511 1512 1513 1514 1514 1515 1515 1516 1516 1517 1517 1517 1517 1517 1517 1517 1517 1517 1516 1516 1516 1516 1516 1516 1516 1516 1517 1517 1518 1519
1488 1489 1489 1488 1489 1491 1493 1499 1497 1498 1500 1501 1503 1504 1506 1507 1508 1509 1510 1511 1512 1513 1514 1515 1516 1516 1516 1517 1517 1517 1517 1517 1517 1517 1517 1517 1517 1516 1516 1516 1516 1516 1516 1516 1516 1517 1517 1518 1519
1491 1496 1501 1491 1489 1490 1496 1507 1498 1498 1499 1502 1503 1505 1506 1507 1508 1509 1510 1511 1512 1513 1514 1515 1516 1517 1517 1517 1517 1517 1517 1517 1517 1517 1517 1517 1517 1516 1516 1516 1516 1516 1516 1516 1516 1517 1517 1518 1518
1503 1508 1505 1495 1487 1489 1495 1503 1498 1498 1499 1502 1503 1504 1505 1507 1508 1509 1510 1511 1512 1513 1514 1515 1516 1516 1517 1517 1517 1518 1517 1517 1517 1517 1517 1516 1516 1516 1516 1516 1516 1516 1516 1516 1516 1516 1516 1517 1517
1512 1509 1503 1500 1490 1490 1496 1499 1496 1498 1499 1502 1504 1504 1505 1506 1508 1509 1510 1511 1513 1514 1514 1515 1515 1516 1517 1517 1517 1518 1518 1517 1517 1517 1516 1516 1516 1515 1515 1515 1515 1515 1515 1515 1515 1515 1516 1516 1516
1498 1502 1502 1495 1489 1493 1497 1499 1497 1497 1498 1501 1502 1503 1504 1506 1508 1509 1510 1511 1512 1514 1514 1515 1515 1516 1517 1517 1517 1517 1517 1517 1517 1517 1516 1516 1515 1515 1515 1515 1515 1515 1515 1515 1515 1515 1515 1515 1516
1493 1500 1500 1494 1489 1493 1499 1501 1497 1497 1497 1498 1500 1502 1503 1506 1508 1509 1510 1511 1512 1513 1514 1515 1516 1516 1517 1517 1518 1518 1518 1517 1517 1517 1516 1516 1516 1515 1515 1514 1514 1514 1514 1514 1514 1514 1514 1514 1515
1490 1495 1495 1496 1491 1493 1500 1508 1503 1499 1498 1499 1501 1502 1503 1504 1506 1508 1510 1511 1511 1512 1513 1515 1515 1516 1517 1517 1518 1518 1517 1517 1517 1516 1516 1516 1515 1515 1514 1514 1514 1513 1513 1513 1513 1513 1513 1513 1514
1492 1481 1482 1488 1500 1509 1505 1523 1507 1500 1499 1498 1499 1500 1502 1503 1505 1507 1509 1510 1510 1511 1513 1514 1515 1516 1516 1517 1517 1517 1517 1516 1517 1516 1516 1515 1515 1515 1514 1513 1513 1512 1512 1512 1512 1512 1512 1512 1512
1480 1474 1478 1484 1497 1509 1508 1519 1514 1502 1503 1498 1496 1497 1499 1501 1503 1506 1507 1508 1509 1511 1512 1514 1515 1516 1516 1516 1516 1516 1516 1516 1516 1516 1515 1515 1514 1514 1513 1513 1512 1511 1511 1511 1511 1511 1511 1511 1511
1470 1477 1484 1492 1504 1521 1512 1518 1517 1504 1497 1495 1494 1495 1497 1499 1501 1504 1506 1507 1509 1511 1512 1513 1514 1515 1515 1516 1516 1515 1515 1515 1515 1515 1514 1514 1513 1513 1512 1512 1511 1510 1510 1510 1510 1510 1510 1510 1510
1473 1494 1515 1519 1527 1524 1508 1513 1510 1490 1487 1487 1490 1493 1495 1497 1500 1502 1504 1506 1507 1509 1511 1512 1513 1513 1514 1515 1515 1515 1514 1514 1514 1514 1513 1513 1512 1512 1511 1511 1510 1509 1509 1509 1509 1508 1508 1508 1508
1475 1490 1516 1527 1531 1523 1511 1513 1500 1484 1484 1486 1489 1492 1494 1496 1498 1499 1502 1504 1505 1508 1510 1511 1512 1512 1513 1513 1514 1514 1514 1513 1513 1513 1512 1512 1511 1511 1510 1510 1509 1508 1508 1508 1507 1507 1507 1507 1506
1476 1485 1487 1507 1514 1523 1518 1507 1495 1485 1485 1487 1490 1491 1493 1494 1496 1498 1500 1503 1505 1507 1508 1509 1510 1511 1511 1512 1512 1513 1513 1512 1512 1512 1511 1511 1510 1510 1509 1509 1508 1507 1507 1506 1506 1505 1505 1505 1504
1466 1474 1492 1507 1522 1528 1520 1513 1508 1494 1490 1488 1489 1490 1491 1493 1494 1496 1499 1501 1504 1506 1507 1509 1509 1510 1510 1510 1511 1511 1512 1511 1511 1511 1510 1510 1509 1509 1508 1507 1507 1506 1505 1505 1504 1504 1503 1503 1502
1471 1478 1489 1503 1508 1524 1529 1517 1486 1486 1485 1485 1486 1487 1490 1491 1494 1496 1499 1501 1503 1505 1506 1507 1508 1509 1509 1509 1510 1510 1510 1510 1510 1509 1509 1509 1508 1508 1507 1506 1505 1504 1504 1503 1503 1502 1501 1501 1500
1464 1473 1485 1503 1509 1511 1519 1511 1476 1478 1480 1482 1484 1486 1489 1492 1494 1496 1498 1500 1501 1503 1504 1505 1506 1507 1507 1508 1508 1508 1508 1508 1508 1507 1507 1507 1507 1506 1506 1505 1504 1503 1502 1501 1501 1500 1499 1499 1498